EHI
0 0 1 4 6 3 0 0 0 0 0 0 0 0 0 0 0 0 0 0 3 7 8 6 5 8 13 21 27 27 24 18 11 6 4 3 2 1 0 0 0 0 0 0 0 0 0 0 0
0 0 2 4 3 1 0 0 0 0 0 0 0 0 0 0 0 0 0 1 4 8 8 7 7 10 15 22 27 28 24 18 10 6 4 2 1 0 0 0 0 0 0 0 0 0 0 0 0
0 0 1 2 1 0 0 0 0 0 0 0 0 1 1 0 0 1 2 4 6 8 9 10 11 13 16 21 26 26 21 14 7 4 3 1 0 0 0 0 0 0 0 0 0 0 0 0 0
0 0 0 0 0 0 0 0 0 0 0 0 1 2 3 1 1 4 7 7 7 8 10 13 14 13 14 16 20 19 14 9 5 4 2 1 0 0 0 0 0 0 1 1 0 0 0 0 0
0 0 0 0 0 0 0 0 0 0 0 0 1 3 5 4 4 8 11 9 8 8 10 13 15 12 11 12 13 11 9 6 5 4 2 1 0 0 0 0 0 0 1 1 0 0 0 0 0
0 0 0 0 0 0 0 0 0 0 0 1 1 4 9 10 9 10 10 8 6 6 9 13 13 11 9 9 9 8 6 4 4 3 2 1 0 0 0 0 0 0 1 1 0 0 0 0 0
0 0 0 0 0 0 0 0 0 0 0 0 1 5 15 21 19 14 9 6 5 5 8 11 10 8 8 7 7 7 5 4 3 3 2 1 0 0 0 0 1 0 0 0 0 0 0 0 0
0 0 0 0 0 0 0 0 0 0 0 1 1 7 24 38 37 26 17 11 9 7 8 9 8 6 6 7 7 7 6 4 3 2 1 0 0 0 0 0 0 0 0 0 0 0 0 0 0
0 0 0 0 0 0 0 0 0 0 0 2 5 16 41 60 59 45 32 24 21 17 13 11 10 8 7 7 7 6 5 5 3 2 1 0 0 0 0 0 0 0 0 0 0 0 0 0 0
0 0 0 0 0 0 0 0 0 0 0 2 12 32 58 73 70 59 46 39 37 31 23 17 15 13 9 8 8 6 4 4 3 3 2 1 0 0 0 1 1 0 0 0 0 0 0 0 0
0 0 0 0 0 0 0 0 0 0 0 3 19 46 67 74 70 62 54 50 47 41 31 24 21 18 14 11 9 5 4 3 3 3 2 1 0 0 1 2 2 1 0 0 0 0 0 0 0
0 0 0 0 0 0 0 0 0 0 0 5 25 53 70 70 65 59 55 54 53 46 37 30 25 21 18 15 11 7 5 3 4 4 3 1 0 1 2 3 3 1 0 0 0 0 0 0 0
0 0 0 0 0 0 0 0 0 0 1 8 28 54 67 65 59 56 55 57 57 52 43 35 31 27 23 19 14 9 6 4 5 6 4 1 0 1 2 3 3 2 1 0 0 0 0 0 0
0 0 0 0 0 0 0 0 0 0 1 9 27 46 56 56 55 56 58 60 61 57 47 41 38 35 30 23 16 10 7 5 5 6 4 1 0 0 1 3 4 4 2 1 1 0 0 0 0
0 0 0 0 0 0 0 0 0 0 2 8 20 32 40 44 48 55 58 60 59 56 50 44 40 39 35 27 17 10 7 6 6 7 6 2 0 0 0 2 5 5 3 2 1 0 0 0 0
0 0 0 0 0 0 0 0 0 0 2 7 14 21 28 34 40 47 52 53 52 50 49 45 39 38 38 31 21 13 9 7 8 10 8 4 2 1 1 2 3 4 3 2 1 0 0 0 0
0 0 0 0 0 0 0 0 0 0 2 6 12 17 23 30 36 42 46 47 45 44 46 46 41 39 39 35 27 17 11 9 10 11 9 7 5 3 1 1 2 3 3 2 1 1 0 0 0
0 0 0 0 0 0 0 0 0 0 2 5 11 18 23 28 34 39 44 43 41 40 43 45 45 43 41 38 32 23 15 12 11 11 9 8 6 5 4 3 3 4 4 3 2 1 0 0 0
0 0 0 0 0 0 0 0 0 1 3 6 11 19 24 26 30 38 42 40 38 38 41 45 47 46 45 43 37 30 21 14 11 10 8 8 8 8 7 6 6 6 5 4 3 1 1 0 1
0 0 0 0 0 0 0 0 1 2 2 4 9 16 21 24 29 37 40 37 36 38 42 46 48 48 48 48 43 36 28 18 12 9 9 9 10 10 7 7 8 7 6 4 2 2 2 2 2
0 0 0 0 0 0 0 0 1 2 2 2 5 10 15 21 27 34 36 35 34 37 42 46 47 47 46 46 43 38 31 22 16 14 12 11 12 11 7 5 6 6 5 3 2 2 3 3 3
0 0 0 0 0 0 0 0 2 2 2 2 5 8 14 20 25 28 32 34 33 35 39 43 44 43 40 39 39 36 31 24 21 20 16 12 12 12 8 5 4 4 3 2 2 2 3 3 3
0 0 0 0 0 0 0 0 1 1 1 1 5 9 14 21 25 26 30 34 35 34 38 42 42 39 37 35 34 34 30 24 21 20 17 13 11 11 8 6 4 3 2 2 2 2 1 2 2
0 0 0 0 0 0 0 0 0 0 0 1 6 11 15 20 24 25 27 32 34 36 39 42 40 38 36 33 33 33 31 26 21 17 15 13 11 10 9 7 5 4 2 2 2 1 1 1 1
0 0 0 0 0 0 0 0 0 0 1 2 6 12 16 20 22 23 24 27 32 37 41 41 38 36 33 31 32 32 30 25 18 13 11 10 11 11 9 7 6 5 3 2 2 2 1 1 0
0 0 0 0 0 0 0 0 0 1 1 1 3 9 15 17 19 20 22 26 31 38 41 39 36 34 31 28 28 28 25 19 13 9 7 7 8 9 8 8 7 5 3 3 3 4 3 2 2
0 0 0 0 0 0 0 0 1 2 3 2 2 5 11 14 16 19 21 24 30 36 38 35 32 31 29 26 24 22 18 13 9 7 6 6 7 7 8 7 7 5 4 4 5 6 6 5 5
0 0 0 0 0 0 0 0 2 4 7 6 4 5 8 12 16 21 23 25 27 29 29 29 28 29 28 26 20 16 13 9 7 7 6 6 7 8 8 8 7 7 6 7 8 8 8 8 8
0 0 0 0 0 0 0 0 3 7 10 10 9 9 9 12 17 23 27 28 25 24 24 25 28 29 28 24 18 14 11 9 7 6 5 5 5 6 7 7 8 8 9 10 9 9 9 9 9
0 0 0 0 0 0 0 1 4 8 11 12 14 13 11 14 19 24 28 29 27 24 23 25 29 31 27 22 19 15 12 10 8 6 5 4 4 5 5 6 7 8 11 12 9 8 9 10 10
Wind_Speed
10 7 5 5 7 2 7 7 5 5 5 5 4 1 3 5 5 8 10 18 18 18 19 17 14 14 14 14 14 15 15 14 14 13 13 12 12 12 11 11 12 12 12 12 13 13 13 13 13
6 5 6 7 5 5 7 5 5 5 6 6 5 2 3 6 7 10 13 17 19 19 18 17 16 15 15 14 14 14 14 14 14 13 12 12 12 11 11 12 12 12 12 13 13 13 13 13 13
5 6 7 5 1 4 7 5 5 6 6 5 4 3 4 6 8 10 14 20 19 17 16 17 17 16 15 14 14 14 14 14 13 13 12 12 11 11 11 12 12 12 12 12 13 13 13 12 12
5 6 6 5 4 5 4 4 4 6 6 4 4 6 6 6 5 10 18 20 19 17 17 19 16 16 15 14 14 14 14 13 13 12 12 11 11 11 11 12 12 12 12 12 12 12 12 12 12
6 6 6 4 4 4 2 2 2 4 4 4 4 6 7 5 8 16 19 19 18 17 16 19 17 16 15 14 14 14 13 13 12 12 11 11 11 11 11 12 12 12 12 12 12 12 11 11 11
6 6 6 4 6 4 3 2 3 3 4 4 4 6 7 7 12 17 19 18 17 17 17 18 17 16 15 14 14 13 13 12 12 12 11 11 11 11 11 11 11 12 11 11 11 11 10 10 11
7 6 3 3 5 5 3 1 2 2 3 4 3 5 8 10 14 17 17 16 16 16 16 16 17 15 15 14 13 13 12 12 11 11 11 11 11 10 11 11 11 11 11 11 10 10 9 10 10
6 6 5 5 5 5 4 2 1 1 3 4 3 4 9 13 15 16 15 14 14 14 15 15 15 15 14 14 13 13 12 11 11 11 11 10 11 10 10 11 10 11 10 10 9 9 8 9 9
6 8 6 4 3 4 3 2 3 1 4 4 2 3 11 19 18 16 15 14 13 13 13 14 14 13 13 13 14 13 12 11 11 11 11 10 9 10 9 11 11 10 10 9 8 8 7 8 9
7 7 2 2 1 1 1 2 1 4 6 5 6 9 17 20 20 19 18 17 16 15 14 12 13 12 11 10 11 9 10 10 9 8 10 7 5 5 7 12 9 9 9 9 8 7 8 8 8
7 5 0 2 3 3 3 2 3 5 4 5 8 13 18 19 19 19 18 17 16 15 14 13 12 12 11 8 8 6 5 7 7 8 8 5 5 5 6 6 8 8 9 8 9 8 5 4 3
7 6 5 5 4 5 5 3 3 4 2 1 6 15 19 20 19 18 18 17 16 16 15 13 13 11 10 8 7 7 6 6 6 8 8 6 4 4 5 4 5 5 4 4 5 3 4 3 4
11 6 6 7 7 6 6 6 5 4 1 2 8 15 17 18 18 16 16 15 15 15 14 13 13 12 10 8 6 7 6 6 7 6 6 6 5 5 5 3 3 3 4 5 4 4 4 3 4
6 7 7 7 7 6 7 6 6 3 2 5 10 13 15 16 16 16 16 16 16 15 14 13 13 12 11 9 7 6 6 5 6 6 8 7 5 5 5 5 4 3 3 3 3 4 4 4 3
7 8 8 7 7 5 7 9 7 3 3 6 9 11 13 13 14 16 16 16 16 15 14 14 13 13 12 11 10 7 6 7 6 6 7 7 6 6 5 4 5 4 4 4 3 4 4 4 4
9 11 10 7 6 6 9 8 5 4 5 5 7 9 11 11 13 13 14 14 14 15 15 14 12 13 13 10 9 7 6 7 6 6 7 8 6 6 5 4 5 4 4 4 4 4 4 4 3
12 12 10 7 6 5 9 5 3 3 5 5 6 8 10 10 12 12 14 14 14 15 15 15 14 14 13 12 9 8 6 6 6 6 6 7 7 7 6 4 3 5 4 4 4 4 4 3 3
11 10 9 8 6 5 8 5 2 3 4 5 6 7 9 10 10 11 13 14 14 14 14 14 14 13 12 10 8 7 7 7 6 6 7 8 7 8 7 5 5 6 5 4 4 3 3 3 3
6 8 8 5 2 6 7 6 4 4 5 6 6 7 8 8 9 10 12 13 13 13 14 14 14 13 11 9 9 9 8 7 7 7 8 9 8 8 7 5 6 6 5 5 6 5 6 5 4
10 10 9 5 3 6 6 6 4 4 5 5 6 6 7 7 8 9 11 12 13 14 14 14 15 14 13 10 8 7 7 7 6 6 7 9 9 9 8 7 6 6 5 6 6 5 5 4 5
13 12 9 5 4 6 7 9 7 6 5 5 6 6 6 7 9 10 11 12 12 14 15 13 15 14 14 12 9 7 6 6 7 8 7 9 10 10 8 8 8 6 7 6 7 7 7 5 5
12 9 7 7 8 7 7 7 7 7 7 7 7 7 7 7 8 9 10 11 12 12 13 13 14 14 14 13 12 13 10 10 9 8 7 8 10 10 10 9 9 8 7 6 8 7 6 6 5
8 5 7 8 9 8 8 9 4 7 7 7 7 7 7 7 7 8 8 9 9 11 12 12 13 13 14 13 13 13 11 9 7 7 8 8 8 10 10 10 9 8 7 7 7 6 7 6 7
8 7 6 7 9 10 7 8 4 5 4 4 5 6 6 7 7 6 7 7 7 8 10 11 12 13 13 13 13 13 13 11 10 10 9 8 7 8 10 10 9 9 8 7 8 7 9 7 6
13 11 9 10 10 8 5 7 3 3 2 1 2 4 5 6 6 7 7 7 7 8 9 10 11 11 12 13 13 14 13 12 11 10 10 9 7 8 10 10 9 9 8 8 8 8 8 8 8
17 16 10 8 8 6 7 7 2 4 3 2 3 4 5 6 6 6 6 7 7 8 9 10 10 10 11 12 12 11 11 9 9 10 9 9 8 8 10 11 10 10 9 9 8 7 8 7 8
16 16 13 8 6 6 6 5 4 5 5 5 5 5 6 6 6 6 6 6 7 8 8 9 9 9 10 10 10 10 10 9 9 8 9 8 7 8 10 10 11 10 9 9 9 8 8 8 9
11 13 9 10 8 8 7 8 5 8 6 6 5 5 6 6 6 6 5 5 5 6 7 8 8 8 9 9 8 8 9 9 9 8 8 8 8 8 9 9 10 10 10 9 9 8 8 9 8
11 13 11 10 8 7 5 4 3 5 4 5 6 5 5 6 6 6 6 5 5 6 7 7 8 7 7 7 7 7 7 8 8 7 8 8 8 8 9 9 9 10 10 9 9 9 8 9 9
14 13 13 10 8 8 7 3 7 4 4 5 6 6 6 6 6 6 6 5 5 5 6 6 7 7 6 6 6 6 6 7 7 7 7 7 7 7 8 8 9 9 9 9 9 9 8 8 8
Wind_Direction
195 204 231 243 236 182 86 84 82 98 98 97 118 98 49 37 18 71 116 142 140 142 138 145 141 138 134 132 131 132 133 132 130 128 127 124 121 119 116 114 111 110 109 108 108 108 108 108 109
195 212 236 241 247 119 97 82 89 78 88 121 134 125 86 72 56 105 136 140 145 142 143 146 141 140 137 134 133 133 132 131 130 129 127 124 122 120 118 114 112 112 111 110 110 110 109 109 109
202 238 261 249 211 80 93 92 91 103 124 141 120 80 47 67 105 130 139 146 146 142 141 137 146 143 140 137 135 134 134 133 133 131 130 126 125 123 120 116 115 113 112 112 111 112 111 112 111
224 229 237 242 115 81 80 94 116 141 137 138 129 103 82 63 117 134 143 150 145 145 145 139 149 145 143 141 139 137 137 136 135 134 132 129 126 124 122 117 116 114 113 112 112 113 113 113 113
242 254 230 182 113 98 93 86 164 164 137 136 140 105 93 81 115 136 148 151 150 150 145 142 151 147 146 145 143 140 139 139 137 136 133 130 127 125 122 119 117 116 114 114 114 115 116 116 117
236 243 229 162 121 120 115 130 188 170 136 137 142 121 94 113 136 147 152 156 155 152 147 141 151 150 149 148 146 143 143 141 140 137 135 132 129 125 124 122 121 118 116 116 115 116 117 120 121
263 252 233 158 139 136 96 129 187 170 160 148 144 120 118 138 145 152 154 157 157 155 148 150 155 154 154 152 149 147 146 144 141 139 136 135 130 126 126 125 124 122 121 120 118 117 119 120 124
276 260 206 178 169 127 106 140 119 208 130 122 173 149 141 147 150 152 153 159 161 160 156 156 159 157 161 158 154 151 149 147 145 142 140 136 132 131 132 139 126 126 125 125 123 121 121 124 129
252 245 204 169 167 123 115 161 121 140 144 152 146 79 123 143 151 154 158 164 167 167 163 164 160 162 166 160 153 160 155 153 156 152 149 162 159 147 155 120 127 131 131 130 129 127 130 142 142
237 239 173 79 321 45 138 239 184 190 180 168 139 113 131 149 158 164 168 171 172 172 173 168 167 163 168 160 157 168 168 161 177 157 162 170 142 139 123 118 134 136 136 139 135 138 165 197 156
231 252 290 224 266 294 262 236 211 236 210 191 171 150 153 161 168 174 175 176 173 174 176 171 168 166 173 162 166 168 166 159 170 161 165 154 152 149 141 147 149 155 163 162 152 179 187 167 124
235 240 257 265 276 273 271 262 245 248 304 75 160 157 164 170 179 181 178 178 174 178 180 175 169 173 177 172 170 172 169 168 168 161 177 163 165 161 145 156 153 163 161 158 171 173 159 144 144
229 242 244 254 261 264 261 251 256 249 265 156 152 162 173 179 183 184 180 179 176 179 180 178 174 174 175 176 186 180 174 174 165 163 174 175 170 170 151 152 158 168 151 165 182 176 156 167 171
228 243 251 252 246 237 240 237 233 222 157 159 162 172 180 183 182 181 180 181 180 182 181 178 180 177 177 180 189 182 178 177 173 174 170 184 179 165 164 167 171 171 175 163 177 165 172 188 170
241 239 231 220 222 216 231 228 219 194 176 178 177 178 181 185 185 186 184 183 182 182 181 180 181 180 183 187 189 187 186 181 185 173 171 184 188 173 184 175 182 177 169 166 188 176 184 186 185
220 226 219 186 203 196 232 230 156 162 194 192 185 180 183 187 192 191 186 184 183 182 182 183 184 183 186 188 190 190 194 188 187 181 176 186 189 188 199 190 188 174 189 187 177 201 198 193 197
210 219 213 178 186 205 233 243 153 181 202 196 189 182 185 188 195 193 189 184 186 185 182 184 189 186 186 186 186 193 190 196 193 189 187 184 192 193 207 204 185 192 197 201 207 180 212 192 200
207 214 208 200 173 226 233 240 204 195 215 208 195 185 188 193 195 191 189 187 185 186 184 186 189 186 184 185 184 189 194 196 199 197 194 192 196 197 209 206 196 209 200 203 213 186 206 210 206
230 226 217 199 174 244 237 240 224 210 214 209 202 191 192 197 190 183 183 186 184 186 187 187 189 185 183 183 185 188 192 194 198 202 200 201 205 199 208 220 193 214 208 211 206 204 197 209 202
225 225 218 192 195 252 242 237 220 219 219 218 210 201 195 189 183 178 181 184 186 188 191 189 190 187 187 188 188 190 189 194 200 210 201 207 205 205 203 212 211 208 209 211 214 215 224 204 198
220 226 222 216 219 222 244 225 207 197 207 209 212 204 193 190 186 181 185 188 189 190 194 193 191 187 188 186 185 185 186 194 198 206 205 209 207 207 215 208 216 211 216 207 212 209 223 220 208
215 220 233 231 237 215 230 248 188 193 197 205 204 198 193 190 187 186 186 188 192 193 192 191 188 190 190 188 190 189 194 200 203 202 200 204 209 210 210 214 214 215 219 207 217 208 220 226 222
217 197 222 228 236 246 218 254 193 182 208 201 197 196 195 187 182 185 188 188 192 193 190 189 190 192 193 195 194 196 202 206 203 201 201 208 208 212 212 213 214 213 220 217 228 212 226 223 231
195 188 202 225 232 233 223 248 223 180 204 190 176 184 190 182 177 179 181 182 187 187 188 186 190 194 195 198 200 203 206 205 203 204 200 204 209 212 213 214 214 216 219 214 218 219 220 231 234
201 202 199 204 213 221 182 238 239 112 138 173 164 168 173 175 174 174 175 177 180 183 184 184 186 193 196 200 204 206 210 208 208 208 206 206 208 210 209 213 213 217 216 219 221 221 229 223 226
204 214 222 215 211 191 179 230 166 118 119 130 150 151 157 166 167 169 170 172 175 179 182 185 188 193 196 200 204 207 207 207 207 209 211 209 213 216 211 210 213 217 215 216 214 225 223 223 228
199 218 236 250 243 234 191 196 179 158 160 151 148 152 160 160 156 158 163 165 167 171 177 184 188 191 194 197 201 205 203 208 210 206 211 216 216 216 213 212 212 214 214 217 217 227 227 223 227
222 210 216 234 227 232 207 212 201 171 167 154 153 148 144 144 144 139 141 151 159 167 173 180 183 187 190 193 200 199 200 205 210 211 212 216 215 216 215 212 211 212 213 214 219 225 225 226 226
196 206 214 228 240 246 225 187 123 153 148 151 146 140 136 133 131 130 131 137 152 160 165 177 182 183 185 190 196 196 196 202 206 211 214 214 212 212 213 211 211 210 212 213 216 225 222 225 224
205 209 207 216 218 244 264 137 101 124 135 135 132 128 126 128 125 122 125 132 141 154 162 172 180 181 181 182 185 190 192 196 202 209 213 212 210 210 210 211 211 211 211 213 217 222 221 221 223